Flag for Russia Weather past 2 weeks in Samara, Russia

Now
66 °F

Sunny.


Feels Like: 66 °F
Forecast: 46 / 77 °F
Wind: 15 mph from Northeast

Location: Samara

Current Time: Jul 28, 2014 at 7:38:33 PM

Latest Report: Jul 28, 2014 at 7:00 PM


Visibility: 10 mi

Pressure: 30.07 "Hg

Humidity: 35%

Dew point: 37 °F

Location of SamaraLocation

Historic Weather in Samara — Graph

°F

Samara temperature yesterday

Maximum temperature yesterday: 64 °F (at 2:00 PM)
Minimum temperature yesterday: 55 °F (at 1:30 AM)
Average temperature yesterday: 59 °F

Past Weeks' High & Low Weather Summary

 TemperatureHumidityPressure
High91 °F (Jul 16, 4:00 PM)83% (Jul 25, 7:30 AM)30.12 "Hg (Jul 25, 7:30 AM)
Low46 °F (Jul 20, 4:00 AM)18% (Jul 14, 3:30 PM)29.71 "Hg (Jul 20, 6:00 PM)
Average66 °F46%29.93 "Hg
* Reported Jul 13 6:00 PM — Jul 28 6:30 PM, Samara, Weather by CustomWeather, © 2014

Note: Actual official high and low records may vary slightly from our data, if they occured in-between our weather recording intervals... More about our weather records

Advertising

Samara weather history for previous 24 hours

 ConditionsComfort  
Time TempWeatherWind HumidityBarometerVisibility
6:30 PM
Jul 28
68 °FScattered clouds.13 mph33%30.07 "HgN/A
6:00 PM68 °FScattered clouds.10 mph33%30.04 "HgN/A
5:30 PM70 °FScattered clouds.13 mph31%30.04 "HgN/A
5:00 PM70 °FPartly sunny.13 mph31%30.04 "HgN/A
4:30 PM68 °FPartly sunny.10 mph33%30.04 "HgN/A
4:00 PM70 °FBroken clouds.13 mph35%30.04 "HgN/A
3:30 PM70 °FCloudy.10 mph35%30.04 "HgN/A
3:00 PM70 °FCloudy.13 mph38%30.04 "HgN/A
2:30 PM70 °FCloudy.8 mph38%30.04 "HgN/A
2:00 PM68 °FCloudy.13 mph40%30.04 "HgN/A
1:30 PM70 °FCloudy.10 mph35%30.04 "HgN/A
1:00 PM70 °FCloudy.3 mph38%30.04 "HgN/A
12:30 PM66 °FCloudy.3 mph43%30.04 "HgN/A
12:00 PM66 °FCloudy.3 mph43%30.07 "HgN/A
11:30 AM66 °FCloudy.3 mph43%30.07 "HgN/A
11:00 AM64 °FCloudy.3 mph46%30.07 "HgN/A
10:30 AM64 °FCloudy.1 mph46%30.07 "HgN/A
10:00 AM63 °FCloudy.3 mph49%30.07 "HgN/A
9:30 AM61 °FCloudy.1 mph48%30.09 "HgN/A
9:00 AM59 °FMore clouds than sun.1 mph51%30.09 "HgN/A
8:30 AM57 °FMore clouds than sun.1 mph55%30.09 "HgN/A
8:00 AM55 °FMostly cloudy.3 mph63%30.09 "HgN/A
7:30 AM54 °FSunny.3 mph67%30.09 "Hg10 mi
7:00 AM52 °FSunny.6 mph67%30.09 "Hg10 mi
6:30 AM50 °FSunny.6 mph71%30.07 "Hg10 mi
6:00 AM50 °FSunny.6 mph71%30.07 "Hg10 mi
5:30 AM48 °FClear.6 mph76%30.07 "Hg10 mi
5:00 AM48 °FClear.6 mph76%30.07 "Hg10 mi
4:30 AM50 °FClear.6 mph71%30.07 "Hg10 mi
4:00 AM50 °FMostly cloudy.3 mph71%30.07 "HgN/A
3:30 AM50 °FMostly cloudy.3 mph71%30.07 "HgN/A
3:00 AM50 °FMostly cloudy.6 mph71%30.07 "HgN/A
2:30 AM50 °FOvercast.6 mph71%30.07 "HgN/A
2:00 AM52 °FOvercast.6 mph67%30.07 "HgN/A
1:30 AM52 °FOvercast.6 mph67%30.07 "HgN/A
1:00 AM52 °FOvercast.6 mph67%30.07 "HgN/A
12:30 AM54 °FOvercast.6 mph63%30.07 "HgN/A
12:00 AM54 °FOvercast.3 mph63%30.07 "HgN/A
11:30 PM
Jul 27
55 °FMostly cloudy.6 mph59%30.07 "HgN/A
11:00 PM57 °FMostly cloudy.3 mph55%30.07 "HgN/A
10:30 PM59 °FMostly cloudy.3 mph51%30.07 "HgN/A
10:00 PM59 °FMostly cloudy.6 mph51%30.07 "HgN/A
9:30 PM59 °FMore clouds than sun.3 mph48%30.07 "HgN/A
9:00 PM61 °FMore clouds than sun.6 mph45%30.07 "HgN/A
8:30 PM61 °FMore clouds than sun.10 mph45%30.07 "HgN/A
8:00 PM61 °FMore clouds than sun.10 mph45%30.04 "HgN/A
7:30 PM61 °FCloudy.13 mph45%30.04 "HgN/A
7:00 PM63 °FMore clouds than sun.10 mph42%30.04 "HgN/A
Weather by CustomWeather, © 2014

See weather overviewHow to use our weather pages